GSAT-17

Last updated on Oct. 23, 2020, 5:56 a.m. UTC

1 42815U 17040B   20296.84447031 -.00000273  00000-0  00000-0 0  9995
2 42815   0.0729 100.5780 0004547 145.1754 183.5045  1.00271142 12094
UTC
Height (km)
Latitude
Longitude
Inclination
Orbital Period
UTC large
Height (km)
Speed (km/s)
/
Latitude / Longitude
Inclination (degrees)
Orbital Period (minutes)
Azimuth
Elevation
Range (km)
Doppler Factor
iOS Compass Heading
iOS Angle

Next 30 passes for location: Hong Kong

Rise time Rise Azimuth (degrees) Set time Set Azimuth (degrees) Duration Max altitude (degrees)

No matching passes for this satellites